• In Czech Republic
  • List of Countries
  • For 7 days
  • Water Temperature
  • Satellite Maps
  • Weather Map
  • Weather Widgets
  • user-avatar
    Login

    Hourly Weather Innsbruck

    Today, 23 May, Tuesday

    Time Temperature Precipitation Wind Pressure Humidity
    00:00 +2°C° 0 mm 1 mps 595 mmHg 93%
    01:00 +1°C° 0 mm 1 mps 595 mmHg 93%
    02:00 +1°C° 0 mm 1 mps 595 mmHg 92%
    03:00 +1°C° 0 mm 1 mps 595 mmHg 91%
    04:00 +1°C° 0 mm 1 mps 595 mmHg 90%
    05:00 +3°C° 0 mm 1 mps 596 mmHg 85%
    06:00 +5°C° 0 mm 1 mps 597 mmHg 80%
    07:00 +7°C° 0 mm 1 mps 598 mmHg 75%
    08:00 +9°C° 0 mm 1 mps 599 mmHg 66%
    09:00 +11°C° 0 mm 1 mps 600 mmHg 57%
    10:00 +13°C° 0 mm 1 mps 601 mmHg 48%
    11:00 +13°C° 0 mm 2 mps 601 mmHg 46%
    12:00 +14°C° 0 mm 2 mps 601 mmHg 44%
    13:00 +15°C° 0 mm 2 mps 601 mmHg 43%
    14:00 +14°C° 0.1 mm 2 mps 601 mmHg 47%
    15:00 +14°C° 0.1 mm 2 mps 601 mmHg 50%
    16:00 +13°C° 0.1 mm 2 mps 600 mmHg 54%
    17:00 +12°C° 0.1 mm 2 mps 600 mmHg 64%
    18:00 +9°C° 0.1 mm 2 mps 599 mmHg 75%
    19:00 +9°C° 0.1 mm 1 mps 599 mmHg 85%
    20:00 +7°C° 0 mm 1 mps 598 mmHg 88%
    21:00 +5°C° 0 mm 1 mps 598 mmHg 90%
    22:00 +4°C° 0 mm 1 mps 598 mmHg 93%
    23:00 +4°C° 0 mm 1 mps 598 mmHg 93%

    Tomorrow, 24 May, Wednesday

    Time Temperature Precipitation Wind Pressure Humidity
    00:00 +4°C° 0 mm 1 mps 598 mmHg 94%
    01:00 +3°C° 0 mm 1 mps 598 mmHg 94%
    02:00 +3°C° 0 mm 1 mps 598 mmHg 94%
    03:00 +3°C° 0 mm 1 mps 598 mmHg 94%
    04:00 +3°C° 0 mm 1 mps 597 mmHg 94%
    05:00 +4°C° 0.1 mm 1 mps 598 mmHg 92%
    06:00 +6°C° 0.1 mm 1 mps 599 mmHg 90%
    07:00 +7°C° 0.1 mm 1 mps 600 mmHg 87%
    08:00 +8°C° 0.1 mm 1 mps 600 mmHg 84%
    09:00 +8°C° 0.1 mm 2 mps 600 mmHg 80%
    10:00 +9°C° 0.1 mm 2 mps 601 mmHg 76%
    11:00 +9°C° 0.1 mm 2 mps 601 mmHg 72%
    12:00 +10°C° 0.1 mm 2 mps 601 mmHg 68%
    13:00 +12°C° 0.1 mm 2 mps 601 mmHg 64%
    14:00 +12°C° 0 mm 2 mps 601 mmHg 62%
    15:00 +12°C° 0 mm 2 mps 601 mmHg 61%
    16:00 +12°C° 0 mm 2 mps 601 mmHg 60%
    17:00 +10°C° 0 mm 2 mps 601 mmHg 68%
    18:00 +8°C° 0 mm 2 mps 600 mmHg 76%
    19:00 +7°C° 0 mm 2 mps 600 mmHg 84%
    20:00 +6°C° 0 mm 1 mps 599 mmHg 88%
    21:00 +5°C° 0 mm 1 mps 599 mmHg 92%
    22:00 +3°C° 0 mm 1 mps 598 mmHg 95%
    23:00 +3°C° 0 mm 1 mps 598 mmHg 95%

    Day after tomorrow, 25 May, Thursday

    Time Temperature Precipitation Wind Pressure Humidity
    00:00 +3°C° 0 mm 1 mps 598 mmHg 95%
    01:00 +3°C° 0 mm 1 mps 598 mmHg 96%
    02:00 +3°C° 0 mm 1 mps 597 mmHg 95%
    03:00 +3°C° 0 mm 1 mps 597 mmHg 94%
    04:00 +3°C° 0 mm 1 mps 597 mmHg 94%
    05:00 +3°C° 0.2 mm 2 mps 597 mmHg 90%
    06:00 +4°C° 0.2 mm 2 mps 598 mmHg 86%
    07:00 +5°C° 0.2 mm 2 mps 598 mmHg 82%
    08:00 +5°C° 0.5 mm 2 mps 598 mmHg 80%
    09:00 +6°C° 0.5 mm 2 mps 598 mmHg 79%
    10:00 +7°C° 0.5 mm 2 mps 599 mmHg 78%
    11:00 +7°C° 0.3 mm 2 mps 599 mmHg 76%
    12:00 +8°C° 0.3 mm 2 mps 599 mmHg 75%
    13:00 +8°C° 0.3 mm 2 mps 599 mmHg 74%
    14:00 +8°C° 0.1 mm 2 mps 599 mmHg 72%
    15:00 +9°C° 0.1 mm 2 mps 599 mmHg 71%
    16:00 +9°C° 0.1 mm 2 mps 599 mmHg 70%
    17:00 +8°C° 0 mm 2 mps 599 mmHg 75%
    18:00 +7°C° 0 mm 2 mps 598 mmHg 81%
    19:00 +7°C° 0 mm 1 mps 598 mmHg 86%
    20:00 +5°C° 0 mm 1 mps 598 mmHg 90%
    21:00 +4°C° 0 mm 1 mps 598 mmHg 93%
    22:00 +3°C° 0 mm 1 mps 597 mmHg 96%
    23:00 +2°C° 0 mm 1 mps 597 mmHg 96%

    26 May, Friday

    Time Temperature Precipitation Wind Pressure Humidity
    00:00 +2°C° 0 mm 1 mps 597 mmHg 96%
    01:00 +1°C° 0 mm 1 mps 596 mmHg 97%
    02:00 0°C° 0 mm 1 mps 596 mmHg 95%
    03:00 0°C° 0 mm 1 mps 595 mmHg 94%
    04:00 -1°C° 0 mm 1 mps 595 mmHg 92%
    05:00 +2°C° 0 mm 1 mps 596 mmHg 83%
    06:00 +4°C° 0 mm 1 mps 597 mmHg 75%
    07:00 +7°C° 0 mm 1 mps 598 mmHg 66%
    08:00 +8°C° 0 mm 1 mps 599 mmHg 59%
    09:00 +9°C° 0 mm 2 mps 600 mmHg 52%
    10:00 +12°C° 0 mm 2 mps 600 mmHg 45%
    11:00 +13°C° 0 mm 2 mps 600 mmHg 44%
    12:00 +14°C° 0 mm 2 mps 600 mmHg 43%
    13:00 +14°C° 0 mm 2 mps 600 mmHg 43%
    14:00 +14°C° 0 mm 2 mps 600 mmHg 46%
    15:00 +14°C° 0 mm 2 mps 600 mmHg 49%
    16:00 +12°C° 0 mm 3 mps 600 mmHg 52%
    17:00 +12°C° 0 mm 2 mps 599 mmHg 62%
    18:00 +9°C° 0 mm 2 mps 599 mmHg 73%
    19:00 +8°C° 0 mm 2 mps 598 mmHg 83%
    20:00 +7°C° 0 mm 1 mps 598 mmHg 88%
    21:00 +5°C° 0 mm 1 mps 597 mmHg 93%
    22:00 +3°C° 0 mm 1 mps 596 mmHg 98%
    23:00 +3°C° 0 mm 1 mps 596 mmHg 97%

    27 May, Saturday

    Time Temperature Precipitation Wind Pressure Humidity
    00:00 +2°C° 0 mm 1 mps 596 mmHg 97%
    01:00 +1°C° 0 mm 1 mps 595 mmHg 97%
    02:00 +1°C° 0 mm 1 mps 595 mmHg 96%
    03:00 0°C° 0 mm 1 mps 595 mmHg 95%
    04:00 0°C° 0 mm 1 mps 595 mmHg 94%
    05:00 +2°C° 0 mm 1 mps 596 mmHg 85%
    06:00 +5°C° 0 mm 1 mps 598 mmHg 76%
    07:00 +7°C° 0 mm 0 mps 599 mmHg 68%
    08:00 +10°C° 0 mm 1 mps 600 mmHg 59%
    09:00 +12°C° 0 mm 1 mps 601 mmHg 50%
    10:00 +14°C° 0 mm 1 mps 602 mmHg 41%
    11:00 +15°C° 0 mm 2 mps 602 mmHg 41%
    12:00 +15°C° 0 mm 2 mps 602 mmHg 40%
    13:00 +16°C° 0 mm 2 mps 602 mmHg 40%
    14:00 +16°C° 0 mm 2 mps 602 mmHg 44%
    15:00 +15°C° 0 mm 2 mps 602 mmHg 47%
    16:00 +15°C° 0 mm 2 mps 602 mmHg 51%
    17:00 +13°C° 0 mm 2 mps 601 mmHg 62%
    18:00 +12°C° 0 mm 1 mps 600 mmHg 73%
    19:00 +10°C° 0 mm 1 mps 600 mmHg 84%
    20:00 +8°C° 0 mm 1 mps 599 mmHg 88%
    21:00 +6°C° 0 mm 1 mps 599 mmHg 93%
    22:00 +4°C° 0 mm 1 mps 598 mmHg 97%
    23:00 +4°C° 0 mm 1 mps 598 mmHg 97%

    28 May, Sunday

    Time Temperature Precipitation Wind Pressure Humidity
    00:00 +5°C° 0 mm 1 mps 599 mmHg 97%
    01:00 +5°C° 0 mm 1 mps 599 mmHg 97%
    02:00 +5°C° 0 mm 1 mps 599 mmHg 96%
    03:00 +5°C° 0 mm 1 mps 599 mmHg 96%
    04:00 +5°C° 0 mm 1 mps 599 mmHg 96%
    05:00 +6°C° 0 mm 1 mps 600 mmHg 91%
    06:00 +8°C° 0 mm 1 mps 601 mmHg 86%
    07:00 +9°C° 0 mm 1 mps 601 mmHg 81%
    08:00 +12°C° 0 mm 1 mps 602 mmHg 68%
    09:00 +14°C° 0 mm 1 mps 603 mmHg 55%
    10:00 +18°C° 0 mm 1 mps 605 mmHg 42%
    11:00 +18°C° 0 mm 1 mps 605 mmHg 41%
    12:00 +19°C° 0 mm 1 mps 605 mmHg 39%
    13:00 +20°C° 0 mm 1 mps 605 mmHg 37%
    14:00 +19°C° 0 mm 1 mps 605 mmHg 41%
    15:00 +19°C° 0 mm 1 mps 604 mmHg 45%
    16:00 +17°C° 0 mm 2 mps 604 mmHg 48%
    17:00 +15°C° 0.1 mm 1 mps 603 mmHg 60%
    18:00 +14°C° 0.1 mm 1 mps 603 mmHg 71%
    19:00 +12°C° 0.1 mm 1 mps 602 mmHg 82%
    20:00 +10°C° 0 mm 1 mps 601 mmHg 86%
    21:00 +8°C° 0 mm 1 mps 601 mmHg 91%
    22:00 +6°C° 0 mm 1 mps 600 mmHg 95%
    23:00 +6°C° 0 mm 1 mps 600 mmHg 95%
    Show more